STARLINK-5688, 55479

Orbit data source: Space-Track

STARLINK-5688, 55479 is a payload satellite owned by SpaceX/Seattle (US) in LEO that was launched on Thu, 02 Feb 2023 UTC via an FALCON 9 launch vehicle from the Air Force Eastern Test Range (AFETR). Payload-class satellites include a variety of spacecraft equipped with specific instruments for various scientific and technological missions. These include communications satellites like Starlink; space stations such as the ISS; scientific satellites like the Hubble; Earth observation satellites from companies like Planet Labs, Umbra, and HawkEye 360; GPS; miniature CubeSats for education and research; and military/defense satellites.

Loading next visibility...
Identifier
55479, 2023-015AG
Orbit
LEO
Country
Flag of USUS
Related business
Manufacturer
SpaceX/Seattle
Mission
Operational Commercial Communications
Bus & Motor
STARLINK, Unknown motor
Mass
305 kg wet, ~290 kg dry
Launch date (UTC)
2023-02-02 (3 years ago)
Launch vehicle
FALCON 9
Launch site
Air Force Eastern Test Range (AFETR)
Object type
Payload
Rocket body
Debris
Shape & HBR
Box + 1 Pan, 10.1 m
Radar Cross Section
13.562 m², Large (>1 m²)

Expand to show TLE details & history
Last TLE update: 15 hours ago

TLE from 15 hours ago
0 STARLINK-5688
1 55479U 23015AG  25288.28320014  .00000494  00000-0  51677-4 0  9993
2 55479  43.0042  23.7168 0001553 268.3915  91.6749 15.02534075149024
Epoch: 2025-10-15T06:47Z
TLE epoch observation values (Epoch: 2025-10-15T06:47:48.492Z)
Latitude
-0.00004°
Longitude
-102.29479°
Altitude
558.895 km
Speed
7.584 km/s
True Right ascension
01h 34m 52s
True Declination
0° 00' 00"
Sunlit
Object was in full shadow at epoch
Visualization orbit readout
Latitude
Unknown
Longitude
Unknown
Altitude
Unknown
Speed
Unknown
Apparent Right ascension
Unknown
Apparent Declination
Unknown
Sunlit
N/A
Visualization observer readout
Local Sidereal Time
15:59:40
Azimuth
Unknown
Elevation
Unknown
Doppler factor
Unknown
Orbital elements
Apogee altitude
562.086 km
Perigee altitude
559.931 km
Semi-major axis
6,939.146 km
Eccentricity
0.00016
Inclination
43.0042°
RAAN
23.7168°
Arg. of periapsis
268.3915°
True anomaly
91.69269°
Mean anomaly
91.6749°
Eccentric anomaly
91.68379°
Mean motion
3.75478 °/min
Orbital period
95.88 mins
BSTAR
0.000051677
Loading maneuver chart data...
Computing Atmospheric mass density...
Loading historical data...
Loading historical data...
Loading historical data...
Loading historical data...
Loading historical data...
Loading historical data...
Loading historical data...

Documentation

Showing up to 5 results
|